Location: ??
(30.3868°N, 114.4943°E)
Time: 04:03:29
(UTC+00:00)

Daily predictions for brighter satellites

Satellite Brightness Start Highest point End
(mag) Time Altitude Azimuth Time Altitude Azimuth Time Altitude Azimuth
Centaur D AC-29 4.1 09:51:10 10° SW 09:57:33 49° SE 10:50:51 10° E
Centaur D AC-29 4.1 09:51:11 10° SW 09:57:33 49° SE 10:50:51 10° E
NOSS 2-2 (C) 4.0 10:37:51 10° SW 10:41:22 51° WNW 10:44:50 10° NNE
Cosmos 1842 3.7 10:38:44 10° NNE 10:42:21 37° E 10:45:57 10° SSE
Okean 2 3.8 10:38:31 10° N 10:42:29 43° E 10:46:25 10° SSE
Cosmos 1943 3.8 10:37:20 10° N 10:42:33 37° ENE 10:47:45 10° SE
Sich 1 Rocket 4.1 10:39:09 10° SSE 10:43:17 37° E 10:47:27 10° NNE
Cosmos 1174 4.5 10:40:37 10° S 10:44:46 49° ESE 10:50:02 10° NE
Tsikada Rocket 4.0 10:40:09 10° N 10:46:20 89° E 10:52:31 10° S
Cosmos 1437 3.5 10:43:59 10° NNE 10:46:36 28° E 10:49:13 10° SE
CZ-4 R/B 1.8 10:43:22 10° SSE 10:47:25 46° ENE 10:51:26 10° N
Centaur D-1AR AC-40 4.2 01:37:10 10° SW 10:50:06 53° SSW 10:55:42 10° ESE
Cosmos 1378 Rocket 4.2 10:45:58 10° NNW 10:50:13 59° W 10:54:25 10° S
CSL-04 Rocket 4.4 10:46:43 10° SE 10:51:25 32° ENE 10:56:11 10° N
Cosmos 1707 4.3 10:49:14 10° NE 10:51:38 16° ENE 10:54:00 10° ESE
Centaur D AC-25 3.9 10:47:46 10° WSW 10:52:27 64° SSE 11:12:37 11° E
Okean 2 Rocket 3.7 10:54:57 10° SSE 10:59:02 35° E 11:03:05 10° NNE
Cosmos 1300 Rocket 4.2 10:55:53 10° SSE 10:59:49 34° E 11:03:49 10° NNE
USA 116 3.7 10:56:28 10° NNE 11:00:14 78° ESE 11:04:29 10° S
H-2A R/B 2.8 10:56:06 10° SE 11:00:20 30° ENE 11:04:38 10° NNE
DMSP B5D1-3 4.4 10:59:38 10° NNE 11:04:45 79° ESE 11:09:50 10° S
Cosmos 1603 3.6 10:59:20 10° NNW 11:05:00 73° ENE 11:10:34 10° SSE
ISS -0.7 11:06:59 10° NW 11:07:59 11° NNW 11:08:58 10° NNW
YAOGAN 1 2.5 11:05:39 10° SSE 11:09:56 74° ENE 11:14:15 10° N
Shenzhou-11 Module 1.5 11:08:16 10° SW 11:10:19 42° SE 11:10:56 31° E
Okean-O 2.9 11:06:33 10° S 11:10:57 74° WSW 11:15:23 10° NNW
USA 234 3.8 11:05:41 10° ENE 11:11:40 37° SE 11:17:36 10° S
Meteor 1-21 4.1 11:08:51 10° N 11:14:27 78° E 11:20:02 10° S
BREEZE-M DEB (TANK) 3.7 11:13:22 10° WSW 11:15:49 44° NW 11:21:03 10° NE
Meteor 1-12 Rocket 4.3 11:12:34 10° S 11:18:28 70° E 11:24:17 10° NNE
Ariane Rocket 4.3 11:17:59 18° E 11:18:59 19° ENE 11:22:31 10° NNE
NOSS 3-4 (A) 4.0 11:16:16 10° S 11:21:20 31° ESE 11:26:30 10° NE
NOSS 3-4 (C) 4.0 11:16:25 10° S 11:21:27 31° ESE 11:26:35 10° NE
H-2A R/B 1.2 11:23:34 10° WSW 11:25:18 50° S 11:26:08 33° ESE
Cosmos 1072 Rocket 4.4 11:19:50 10° S 11:26:02 84° E 11:32:21 10° N
DELTA 2 R/B (1) 3.6 11:25:13 10° WNW 11:30:45 71° NNE 11:33:46 27° ESE
ATLAS 5 CENTAUR R/B 2.4 11:30:30 10° SSW 11:31:35 13° S 11:31:35 13° S
CZ-2C R/B 1.8 11:28:31 10° WNW 11:31:58 39° N 11:33:11 28° NE
Cosmos 1025 Rocket 3.5 11:27:53 10° NNE 11:31:59 38° E 11:33:30 29° ESE
Nadezhda 4 Rocket 4.5 11:27:07 10° NNE 11:32:39 35° E 11:35:44 22° SE
Cosmos 2034 Rocket 4.0 11:26:37 10° S 11:32:50 60° E 11:39:04 10° NNE
ARGOS 3.3 11:29:55 11° SSE 11:34:49 51° ENE 11:40:00 10° N
Cosmos 2298 Rocket 4.3 11:33:03 10° SSW 11:38:21 70° WNW 11:43:40 10° N
CZ-2C R/B 3.3 11:34:57 10° S 11:40:03 74° WSW 11:45:30 10° NNW
Cosmos 2084 Rocket 4.1 11:35:48 10° NW 11:40:14 59° WSW 11:44:00 14° SSE
Cosmos 2151 Rocket 3.4 11:36:23 10° S 11:40:48 80° E 11:45:16 10° N
In-Cosmos 22 4.2 11:35:43 10° N 11:40:54 52° E 11:44:20 21° SSE
MOS 1 Rocket 3.5 11:36:54 10° N 11:41:11 64° WNW 11:45:24 10° SSW
ATLAS 2AS CENTAUR R/B 3.2 11:36:02 10° S 11:43:26 49° ESE 11:51:01 10° NE
CZ-2C R/B 2.7 11:41:32 10° NNE 11:47:03 60° E 11:52:34 10° S
HJ-1C 4.0 11:46:41 16° S 11:49:08 55° W 11:52:22 10° NNW
STPSAT 2 (USA 217) 4.4 11:45:58 10° NNW 11:50:28 82° ENE 11:52:12 37° SSE
